Regional Weather Roundup
Issued by NWS Wakefield, VA

Home | Current Version | Previous Version | Graphics & Text | Print | Product List | Glossary On
Versions: 1 2 3 4 5 6 7 8 9 10 11 12 13 14 15 16 17 18 19 20 21 22 23 24 25 26 27 28 29 30 31 32 33 34 35 36 37 38 39 40 41 42 43 44 45 46 47 48 49 50
000
ASUS41 KAKQ 302110
RWRAKQ

REGIONAL WEATHER ROUNDUP
NATIONAL WEATHER SERVICE WAKEFIELD VA
500 PM EDT TUE SEP 30 2014

Note: "fair" indicates few or no clouds below 12,000 feet with no
significant weather and/or obstructions to visibility. * = Denotes
station may not report precipitation (e.g., rain,snow,etc.),
thunder or fog.

VAZ042-051-052>054-056-302200-
NORTHERN VIRGINIA

CITY           SKY/WX    TMP DP  RH WIND       PRES   REMARKS
WASH NATIONAL  MOSUNNY   77  59  53 CALM      29.87F
DULLES         MOSUNNY   71  61  70 SE3       29.88S
FORT BELVOIR   SUNNY     75  62  64 SW5       29.88S
QUANTICO       MOSUNNY   73  61  65 SW3       29.88F
FREDERICKSBRG* SUNNY     75  62  63 SW5       29.86F
STAFFORD*      SUNNY     72  61  68 CALM      29.91F
WARRENTON      MOSUNNY   73  67  79 CALM      29.87F
CULPEPER*      SUNNY     72  63  73 CALM      29.89F
MANASSAS*      MOSUNNY   73  63  68 SE3       29.88
LEESBURG*      MOSUNNY   72  64  78 S9        29.88F
WINCHESTER     SUNNY     73  61  64 SE12      29.86F
FRONT ROYAL*   CLEAR     72  61  68 NE7       29.84S
LURAY*         PTCLDY    79  63  57 E12       29.84S
$$

VAZ048-049-060>072-079>083-302200-
CENTRAL AND SOUTH CENTRAL VIRGINIA...AND NORTH CENTRAL NORTH CAROLINA

CITY           SKY/WX    TMP DP  RH WIND       PRES   REMARKS
RICHMOND       MOSUNNY   74  62  66 E8        29.87F
CHESTERFIELD*  PTCLDY   N/A N/A N/A SE6       29.88F
PETERSBURG*    MOSUNNY   72  60  64 S3        29.87F
HANOVER        PTSUNNY   74  62  66 SE6       29.89S
TAPPAHANNOCK*  SUNNY     74  57  55 CALM      29.88S
CHARLOTTSVILLE CLOUDY    69  62  78 S6        29.88S
ORANGE*        CLOUDY    70  61  73 CALM      29.90S
LOUISA*        CLOUDY    68  63  83 CALM      29.88S
FARMVILLE*     MOSUNNY   73  63  68 NE7       29.86F
CREWE*         NOT AVBL
FORT PICKETT*  CLEAR     71  64  77 NE5       29.88S
LUNENBURG*     CLEAR    -34 -40  75 CALM      29.87S
SOUTH HILL*    SUNNY     75  64  69 CALM      29.92F
LAWRENCEVILLE* PTCLDY    73  66  78 SE3       29.87S
ROANOKE RAPIDS CLOUDY    70  63  78 N5        29.88S
RALEIGH        MOSUNNY   74  62  66 NE3       29.87F
$$

VAZ088>098-302200-
SOUTHEAST VIRGINIA

CITY           SKY/WX    TMP DP  RH WIND       PRES   REMARKS
NORFOLK        MOSUNNY   73  63  70 NE8       29.86F
VIRGINIA BEACH MOSUNNY   76  62  62 NE10      29.86S
NORFOLK NAVAL  MOSUNNY   74  64  71 E10       29.88F
WEST POINT*    MOSUNNY   76  60  57 CALM      29.88F
NEWPORT NEWS   SUNNY     78  60  53 E8        29.87S
LANGLEY AFB    SUNNY     74  65  74 NE10      29.87F
FORT EUSTIS    MOSUNNY   75  75 100 CALM      29.85F
WILLIAMSBURG*  SUNNY     73  66  78 CALM      29.88S
HR EXEC AP*    CLEAR     77  61  57 NE5       29.88S
FRANKLIN*      SUNNY     75  61  60 CALM      29.86S
WAKEFIELD      PTSUNNY   74  65  73 CALM      29.86F
$$

VAZ020-022-025-037-045-302200-
WEST CENTRAL AND SOUTHWEST VIRGINIA

CITY           SKY/WX    TMP DP  RH WIND       PRES   REMARKS
STAUNTON*      MOSUNNY   77  55  47 SE12      29.88R HAZE
HOT SPRINGS VA SUNNY     68  27  21 W9G16     29.99S
LYNCHBURG      SUNNY     76  62  62 SE7       29.88R
DANVILLE       SUNNY     79  64  60 E5        29.86F
SOUTH BOSTON*  NOT AVBL
MARTINSVILLE   SUNNY     83  55  38 CALM      29.89S
ROANOKE        MOSUNNY   81  50  33 SW6       29.88F
BLACKSBURG     SUNNY     77  57  50 CALM      29.94S
DUBLIN*        SUNNY     75  55  48 NW5       29.94S
MARION*        SUNNY     74  52  45 W8        29.98S
HILLSVILLE*    SUNNY     73  52  48 NW8       29.95S
RICHLANDS*     CLEAR     75  53  46 NW7       29.97S
WISE*          SUNNY     75  46  35 W5        29.98S
ABINGDON*      SUNNY     78  55  44 NW5       29.94S
$$

MDZ021>025-VAZ099-100-302200-
SOUTHERN MARYLAND AND THE DELMARVA PENINSULA

CITY           SKY/WX    TMP DP  RH WIND       PRES   REMARKS
PATUXENT RIVER MOSUNNY   74  60  61 SE7       29.86F
BAY BRIDGE APT   N/A     73  61  64 W6        29.87S
LEONARDTOWN    SUNNY     73  59  60 E5        29.88S
DOVER          MOSUNNY   71  60  67 SE6       29.86F
GEORGETOWN     SUNNY     74  61  63 E9        29.88F
EASTON         MOSUNNY   75  64  69 CALM      29.90S
CAMBRIDGE      SUNNY     79  59  50 CALM      29.86S
SALISBURY      MOSUNNY   77  62  59 E10       29.87F
OCEAN CITY     MOSUNNY   72  63  73 E8        29.89S
WALLOPS ISLAND SUNNY     73  64  73 E10       29.88F
ACCOMACK*      CLOUDY    72  61  68 CALM      29.87S
$$

NCZ012>017-030>032-302200-
EASTERN NORTH CAROLINA

CITY           SKY/WX    TMP DP  RH WIND       PRES   REMARKS
ELIZABETH CITY SUNNY     74  63  68 NE13      29.85S
AHOSKIE*       MOSUNNY   73  64  74 N3        29.86F
EDENTON*       CLOUDY    73  65  74 SE3       29.85R
CURRITUCK*     SUNNY     74  60  62 NE9       29.86F
KILL DEVIL HLS SUNNY     73  64  74 N8        29.84S
MANTEO         SUNNY     73  64  72 NE10      29.85S
CAPE HATTERAS  SUNNY     72  66  81 NE10G18   29.82F
TARBORO*       PTCLDY    75  64  68 N7        29.87S
GOLDSBORO      MOSUNNY   77  67  71 CALM      29.83S
WASHINGTON     MOSUNNY   78  62  57 NE6       29.84S
GREENVILLE     PTSUNNY   77  64  65 N8        29.87S
NEW BERN       MOSUNNY   81  63  54 N8        29.84S
WILMINGTON     PTSUNNY   82  64  54 N10       29.82S
$$

VAZ048-302200-
ELSEWHERE

CITY           SKY/WX    TMP DP  RH WIND       PRES   REMARKS
HARRISBURG PA  PTSUNNY   73  61  65 VRB3      29.86F
BALTIMORE      MOSUNNY   75  58  55 S5        29.86F
ANNAPOLIS      SUNNY     73  62  68 SE6       29.86F
ANDREWS AFB    SUNNY     75  61  60 SE9       29.87S
WILMINGTON DE  SUNNY     75  60  59 SE3       29.89S
PHILADELPHIA   PTSUNNY   78  54  43 NE5       29.88F
WILDWOOD NJ*   MOSUNNY   70  59  68 E9        29.91S
ATLANTIC CITY  MOSUNNY   70  60  70 E14       29.91R
HENDERSON NC   MOSUNNY   72  62  72 CALM      29.88S
GREENSBORO     MOSUNNY   80  58  46 VRB3      29.87S
ROCKY MOUNT    MOSUNNY   73  63  70 N5        29.87S
FAYETTEVILLE   SUNNY     79  63  57 NE7       29.85S
CHARLOTTE      MOSUNNY   81  57  43 NW5       29.88S
$$

VAZ100-302200-
MARINE

STATION/POSITION TIME  TEMP    WIND        PRES    WAVE   SWELL
                       AIR SEA DIR/SP/G            HT/PER HT/PER
                 (UTC) (F)     (DEG/KT/KT) (MB)    (FT/S) (FT/S)
44066 TX TWR #4  2100   68 69   50/ 10/ 12 1011.7F   3/ 5   3/ 5
CAPE MAY NJ      2100   69 74   70/  8/ 14 1011.8F
LEWES DE         2100   69 71   90/ 11/ 13 1011.8S
15NM E FENWICK I 2100   70 71              1011.8F   2/15
OCEAN-CITY-INLET 2100   71 72   70/  6/  9 1011.8S
WACHAPREAGUE VA  2100   71 76   70/  8/ 10 1011.5S
THOMAS POINT MD  2100   73 73   CALM  /  1 1012.4F
GOOSES REEF MD   2100   72     200/  4/  4 1011.9R
COVE POINT MD    2100   71     170/  7/  7 1011.1F
SOLOMONS ISLAND  2100      74                N/A
BISHOPS HEAD MD  2100   72 76  250/  5/  6 1010.9F
PINEY POINT MD   2100          170/  5/  6   N/A
POTOMAC MD       2100   72     160/  4/  4 1010.9S
CAMBRIDGE MD     2100   72 71  330/  6/  8 1010.7F
LEWISETTA VA     2100   72 71  120/  6/  7 1010.8F
RAPPAHANNOCK LGT 2100          350/  2/  3 1012.1R
STINGRAY PT      2100   72      40/  4/  4   N/A
YORK RVR RNG VA  2100   72     100/  5/  6 1011.0F
YORKTOWN VA      2100   72      90/  7/  8 1011.1S
JAMESTOWN VA     2100   71     210/  2/  2   N/A
DOMINION TERM VA 2100   71      90/ 11/ 14 1011.4F
KIPTOPEKE VA     2100      76   40/  4/  6   N/A
CHES BAY BRIDGE  2100   70 72   20/  6/  8 1010.9F
CHESAPEAKE LGHT  2000   70      50/ 11/ 13 1012.1S
WILLOUBY STN VA  2100   71      60/  8/  9 1010.1F
S CRANEY ISL VA  2100           30/  8/ 10 1011.0F
CAPE HENRY BUOY  2100      74                N/A     2/14   2/14
1ST LANDING BUOY 2100   72      60/ 10/ 12 1011.2F
CAPE CHARLES BUO 2100      73                N/A     2/13   2/13
OFFSHORE WE BUOY 2100      73                N/A     2/14   2/14
64NM E OF VA BCH 2100   71 74   30/ 10/ 12 1010.3F   2/ 7   2/ 7
DUCK PIER NC     2100   71 73   30/ 11/ 12 1010.1S
44100 DUCK FRF   2100      73                N/A     2/ 8   2/14
44056 DUCK FRF   2100                        N/A     2/14
OREGON INLET NC  2100   72 73   20/  9/ 12 1010.4R
HATTERAS NC      2100   72 75   20/ 13/ 15 1010.3S
DIAMOND SHLS NC  2100   74     360/ 16/ 19 1009.3S   4/ 6   2/ 7
CAPE LOOKOUT NC  2000   74      40/ 13/ 14 1009.6F
$$



USA.gov is the U.S. government's official web portal to all federal, state and local government web resources and services.